DW9840 Weather Reports


Display with metric or nautical units.
time (UTC)temp
F
wind
direction
speed
MPH
gust
MPH
rain 1hr
in
rain 24hr
in
rain mn
in
humidity
%
barometer
mb
20200526134553 61 203 0.0 0.0 0.00 0.00 0.00 45 1010.3
20200526133052 0 0.0 0.0 0.00 0.00 0.00 1010.1
20200526131517 0 0.0 0.0 0.00 0.00 0.00 1009.9
20200526130015 0 0.0 0.0 0.00 0.00 0.00 1009.7
20200526124623 0 0.0 0.0 0.00 0.00 0.00 1009.7
20200526123136 0 0.0 0.0 0.00 0.00 0.00 1009.7
20200526121618 0 0.0 0.0 0.00 0.00 0.00 1009.7
20200526120021 0 0.0 0.0 0.00 0.00 0.00 1009.5
20200526114606 0 0.0 0.0 0.00 0.00 0.00 1009.5
20200526113257 0 0.0 0.0 0.00 0.00 0.00 1009.4
20200526111610 0 0.0 0.0 0.00 0.00 0.00 1009.3
20200526110049 0 0.0 0.0 0.00 0.00 0.00 1009.2
20200526104508 58 191 0.0 0.0 0.00 0.00 0.00 45 1009.2
20200526103006 59 191 0.0 0.0 0.00 0.00 0.00 46 1009.2
20200526101611 60 191 0.0 0.0 0.00 0.00 0.00 43 1009.2
20200526100111 60 191 0.0 0.0 0.00 0.00 0.00 52 1009.2
20200526094538 60 191 0.0 0.0 0.00 0.00 0.00 54 1009.3
20200526093050 60 191 0.0 0.0 0.00 0.00 0.00 53 1009.4
20200526091534 60 191 0.0 0.0 0.00 0.00 0.00 58 1009.5
20200526084506 60 191 0.0 0.0 0.00 0.00 0.00 61 1009.8
20200526083002 60 191 0.0 0.0 0.00 0.00 0.00 61 1009.8
20200526081702 60 191 0.0 0.0 0.00 0.00 0.00 61 1009.9
20200526080117 60 190 0.0 0.0 0.00 0.00 0.00 64 1009.9
20200526074711 61 190 0.0 0.0 0.00 0.00 0.00 64 1010.1
20200526073157 61 190 0.0 0.0 0.00 0.00 0.00 66 1010.1
20200526071553 61 190 0.0 0.0 0.00 0.00 0.00 68 1010.1
20200526070038 61 188 0.0 0.0 0.00 0.00 0.00 70 1010.0
20200526064518 61 208 0.0 0.0 0.00 0.00 0.00 71 1010.1
20200526063021 61 211 0.0 0.0 0.00 0.00 0.00 71 1010.1
20200526061706 62 205 0.0 2.0 0.00 0.00 0.00 71 1010.1
20200526060200 62 218 0.0 0.0 0.00 0.00 0.00 71 1010.3
20200526054617 62 219 0.0 0.0 0.00 0.00 0.00 71 1010.2
20200526053114 62 219 0.0 0.0 0.00 0.00 0.00 71 1010.2
20200526050040 63 225 0.0 2.0 0.00 0.00 0.00 70 1010.0
20200526044536 64 211 1.0 3.0 0.00 0.00 0.00 69 1009.8
20200526043047 64 233 0.0 3.0 0.00 0.00 0.00 68 1009.7
20200526041552 65 233 2.0 4.0 0.00 0.00 0.00 66 1009.7
20200526040058 67 218 0.0 3.0 0.00 0.00 0.00 64 1009.6
20200526034540 68 214 1.0 5.0 0.00 0.00 0.00 61 1009.5
20200526033059 70 191 0.0 4.0 0.00 0.00 0.00 58 1009.3
20200526031511 72 218 2.0 6.0 0.00 0.00 0.00 55 1009.3
20200526030023 75 194 3.0 8.0 0.00 0.00 0.00 51 1009.2
20200526024729 77 170 2.0 6.0 0.00 0.00 0.00 49 1009.2
20200526023141 80 248 1.0 9.0 0.00 0.00 0.00 46 1009.1
20200526021602 83 210 2.0 7.0 0.00 0.00 0.00 42 1009.0
20200526020151 84 186 3.0 7.0 0.00 0.00 0.00 40 1009.1
20200526014519 85 200 3.0 9.0 0.00 0.00 0.00 39 1009.0
20200526013015 86 225 4.0 10.0 0.00 0.00 0.00 35 1009.1
20200526011654 86 217 5.0 9.0 0.00 0.00 0.00 35 1009.2
20200526010105 86 231 4.0 8.0 0.00 0.00 0.00 34 1009.3
20200526004540 87 187 5.0 11.0 0.00 0.00 0.00 32 1009.4
20200526003043 88 198 4.0 10.0 0.00 0.00 0.00 33 1009.5
20200526001523 87 271 3.0 10.0 0.00 0.00 0.00 33 1009.6
20200526000023 88 196 4.0 12.0 0.00 0.00 0.00 32 1009.8
20200525233216 87 205 4.0 13.0 0.00 0.00 0.00 33 1010.1
20200525231609 88 164 6.0 12.0 0.00 0.00 0.00 33 1010.1
20200525230117 89 255 4.0 11.0 0.00 0.00 0.00 31 1010.1
20200525224523 89 127 5.0 12.0 0.00 0.00 0.00 32 1010.2
20200525223005 89 179 5.0 11.0 0.00 0.00 0.00 32 1010.2
20200525221515 89 232 4.0 10.0 0.00 0.00 0.00 32 1010.3
20200525220052 91 255 3.0 10.0 0.00 0.00 0.00 31 1010.4
20200525214606 91 198 3.0 11.0 0.00 0.00 0.00 32 1010.4
20200525213039 91 225 5.0 10.0 0.00 0.00 0.00 31 1010.5
20200525211547 92 233 4.0 9.0 0.00 0.00 0.00 32 1010.6
20200525210014 92 30 3.0 8.0 0.00 0.00 0.00 32 1010.6
20200525204508 93 246 3.0 9.0 0.00 0.00 0.00 33 1010.7
20200525203107 92 250 2.0 9.0 0.00 0.00 0.00 34 1010.7
20200525201719 93 255 3.0 6.0 0.00 0.00 0.00 34 1010.8
20200525200044 92 197 5.0 9.0 0.00 0.00 0.00 34 1010.9
20200525194527 92 233 0.0 5.0 0.00 0.00 0.00 37 1011.0
20200525193126 91 288 1.0 5.0 0.00 0.00 0.00 35 1011.2
20200525191644 90 232 1.0 7.0 0.00 0.00 0.00 35 1011.3
20200525190101 89 260 1.0 5.0 0.00 0.00 0.00 35 1011.4
20200525184554 88 176 1.0 7.0 0.00 0.00 0.00 38 1011.4
20200525183021 87 195 0.0 0.0 0.00 0.00 0.00 37 1011.6
20200525181536 86 273 0.0 0.0 0.00 0.00 0.00 38 1011.5
20200525180130 85 277 0.0 0.0 0.00 0.00 0.00 39 1011.6
20200525174651 85 271 0.0 1.0 0.00 0.00 0.00 39 1011.8
20200525173111 84 278 0.0 0.0 0.00 0.00 0.00 38 1011.8
20200525171615 82 257 0.0 0.0 0.00 0.00 0.00 45 1011.7
20200525170049 82 320 0.0 0.0 0.00 0.00 0.00 44 1011.7
20200525164519 80 308 0.0 0.0 0.00 0.00 0.00 46 1011.8
20200525163129 79 25 0.0 0.0 0.00 0.00 0.00 48 1011.7
20200525161604 79 243 0.0 0.0 0.00 0.00 0.00 48 1011.8
20200525160127 77 244 0.0 0.0 0.00 0.00 0.00 51 1011.9
20200525154603 75 301 0.0 0.0 0.00 0.00 0.00 52 1011.9
20200525153119 74 301 0.0 0.0 0.00 0.00 0.00 56 1011.8
20200525151542 70 309 0.0 0.0 0.00 0.00 0.00 61 1011.8
20200525150113 69 319 0.0 0.0 0.00 0.00 0.00 63 1011.6
20200525144549 69 352 0.0 0.0 0.00 0.00 0.00 66 1011.5
20200525143052 69 65 0.0 0.0 0.00 0.00 0.00 66 1011.4
20200525141534 66 65 0.0 0.0 0.00 0.00 0.00 68 1011.5